Satellite: CP4
Catalog number: 31122
Epoch time:      07228.56711427
Element set:     110
Inclination:      098.0858 deg
RA of node:       299.8880 deg
Eccentricity:    0.0085512
Arg of perigee:   197.1065 deg
Mean anomaly:     162.7248 deg
Mean motion:   14.55026301 rev/day
Decay rate:       5.97e-06 rev/day^2
Epoch rev:            1763
Checksum:              303

Satellite: CP3
Catalog number: 31128
Epoch time:      07227.65985393
Element set:    0105
Inclination:      098.0786 deg
RA of node:       298.4068 deg
Eccentricity:    0.0102720
Arg of perigee:   201.6283 deg
Mean anomaly:     158.0582 deg
Mean motion:   14.51856783 rev/day
Decay rate:       -4.8e-07 rev/day^2
Epoch rev:           01745
Checksum:              316

Satellite: LIBERT
Catalog number: 31129
Epoch time:      07228.68637582
Element set:     302
Inclination:      098.0797 deg
RA of node:       299.4060 deg
Eccentricity:    0.0102297
Arg of perigee:   198.4601 deg
Mean anomaly:     161.2863 deg
Mean motion:   14.51950411 rev/day
Decay rate:       3.84e-06 rev/day^2
Epoch rev:            1758
Checksum:              308

/EX
SB KEPS @ AMSAT  $ORB07228.W
Orbital Elements  07228.WEATHER

HR AMSAT ORBITAL ELEMENTS FOR WEATHER SATELLITES
FROM WA5QGD FORT WORTH,TX August 16, 2007
Send Subscribe/unsubscribe to KEPS at 
http://www.amsat.org/mailman/listinfo/keps
BID: ORB07228.W
TO ALL RADIO AMATEURS BT

Satellite: NOAA-10
Catalog number: 16969
Epoch time:      07227.60824122
Element set:    0769
Inclination:      098.7444 deg
RA of node:       244.8239 deg
Eccentricity:    0.0012556
Arg of perigee:   358.9951 deg
Mean anomaly:     001.1188 deg
Mean motion:   14.27331241 rev/day
Decay rate:       -3.5e-07 rev/day^2
Epoch rev:           08770
Checksum:              313

Satellite: NOAA-11
Catalog number: 19531
Epoch time:      07227.74725197
Element set:    0786
Inclination:      098.8124 deg
RA of node:       316.1713 deg
Eccentricity:    0.0011095
Arg of perigee:   218.2528 deg
Mean anomaly:     141.7879 deg
Mean motion:   14.14847433 rev/day
Decay rate:      -1.62e-06 rev/day^2
Epoch rev:           97457
Checksum:              328

Satellite: NOAA-12
Catalog number: 21263
Epoch time:      07227.54219572
Element set:    0286
Inclination:      098.7546 deg
RA of node:       224.6928 deg
Eccentricity:    0.0011710
Arg of perigee:   299.3322 deg
Mean anomaly:     060.6705 deg
Mean motion:   14.25489742 rev/day
Decay rate:        2.6e-07 rev/day^2
Epoch rev:           84470
Checksum:              310

Satellite: MET-3/5
Catalog number: 21655
Epoch time:      07227.96046868
Element set:    0373
Inclination:      082.5594 deg
RA of node:       320.7177 deg
Eccentricity:    0.0014592
Arg of perigee:   060.8807 deg
Mean anomaly:     299.3773 deg
Mean motion:   13.17012214 rev/day
Decay rate:        5.1e-07 rev/day^2
Epoch rev:           76927
Checksum:              325

Satellite: MET-2/21
Catalog number: 22782
Epoch time:      07227.88431605
Element set:     905
Inclination:      082.5508 deg
RA of node:       354.5518 deg
Eccentricity:    0.0023972
Arg of perigee:   070.5959 deg
Mean anomaly:     289.7791 deg
Mean motion:   13.83617023 rev/day
Decay rate:      -1.24e-06 rev/day^2
Epoch rev:           70477
Checksum:              330

Satellite: OKEAN-4
Catalog number: 23317
Epoch time:      07227.77785953
Element set:    0346
Inclination:      082.5352 deg
RA of node:       240.9353 deg
Eccentricity:    0.0023933
Arg of perigee:   058.8387 deg
Mean anomaly:     301.5169 deg
Mean motion:   14.82525748 rev/day
Decay rate:       2.33e-06 rev/day^2
Epoch rev:           69288
Checksum:              334

Satellite: NOAA-14
Catalog number: 23455
Epoch time:      07227.81316009
Element set:    0768
Inclination:      098.9859 deg
RA of node:       294.3061 deg
Eccentricity:    0.0008550
Arg of perigee:   293.1141 deg
Mean anomaly:     066.9142 deg
Mean motion:   14.13724754 rev/day
Decay rate:       2.37e-06 rev/day^2
Epoch rev:           65106
Checksum:              309

Satellite: SICH-1
Catalog number: 23657
Epoch time:      07228.73750850
Element set:     145
Inclination:      082.5276 deg
RA of node:       020.9847 deg
Eccentricity:    0.0025327
Arg of perigee:   047.2578 deg
Mean anomaly:     313.0751 deg
Mean motion:   14.81506811 rev/day
Decay rate:        9.4e-07 rev/day^2
Epoch rev:           64499
Checksum:              311

Satellite: NOAA-15
Catalog number: 25338
Epoch time:      07227.58832789
Element set:    0117
Inclination:      098.5328 deg
RA of node:       222.6058 deg
Eccentricity:    0.0009901
Arg of perigee:   211.4440 deg
Mean anomaly:     148.6146 deg
Mean motion:   14.24660938 rev/day
Decay rate:       1.59e-06 rev/day^2
Epoch rev:           48114
Checksum:              315

Satellite: RESURS
Catalog number: 25394
Epoch time:      07227.71681737
Element set:    0722
Inclination:      098.4336 deg
RA of node:       279.8770 deg
Eccentricity:    0.0002169
Arg of perigee:   037.5009 deg
Mean anomaly:     322.6321 deg
Mean motion:   14.24143122 rev/day
Decay rate:        2.0e-08 rev/day^2
Epoch rev:           47282
Checksum:              286

Satellite: FENGYUN1
Catalog number: 25730
Epoch time:      07227.91888538
Element set:    0251
Inclination:      098.6911 deg
RA of node:       209.5278 deg
Eccentricity:    0.0019654
Arg of perigee:   324.6381 deg
Mean anomaly:     035.3484 deg
Mean motion:   14.07580632 rev/day
Decay rate:       5.01e-06 rev/day^2
Epoch rev:           42587
Checksum:              317

Satellite: OKEAN-0
Catalog number: 25860
Epoch time:      07227.51618212
Element set:    0133
Inclination:      097.7331 deg
RA of node:       226.9987 deg
Eccentricity:    0.0001126
Arg of perigee:   103.2228 deg
Mean anomaly:     256.9104 deg
Mean motion:   14.73468249 rev/day
Decay rate:        4.0e-07 rev/day^2
Epoch rev:           43423
Checksum:              279

Satellite: NOAA-16
Catalog number: 26536
Epoch time:      07227.55252513
Element set:    0544
Inclination:      099.1205 deg
RA of node:       205.5413 deg
Eccentricity:    0.0010804
Arg of perigee:   011.9195 deg
Mean anomaly:     348.2218 deg
Mean motion:   14.12447124 rev/day
Decay rate:       1.73e-06 rev/day^2
Epoch rev:           35548
Checksum:              277

Satellite: NOAA-17
Catalog number: 27453
Epoch time:      07227.82642199
Element set:    0551
Inclination:      098.5763 deg
RA of node:       295.6888 deg
Eccentricity:    0.0010739
Arg of perigee:   281.0184 deg
Mean anomaly:     078.9789 deg
Mean motion:   14.23900639 rev/day
Decay rate:       -6.3e-07 rev/day^2
Epoch rev:           26720
Checksum:              350

Satellite: NOAA-18
Catalog number: 28654
Epoch time:      07227.81538666
Element set:    0081
Inclination:      098.8301 deg
RA of node:       168.1048 deg
Eccentricity:    0.0015313
Arg of perigee:   098.6690 deg
Mean anomaly:     261.6211 deg
Mean motion:   14.11088062 rev/day
Decay rate:       4.00e-06 rev/day^2
Epoch rev:           11526
Checksum:              291

/EX
SB KEPS @ AMSAT  $ORB07228.M
Orbital Elements  07228.MISC

HR AMSAT ORBITAL ELEMENTS FOR MANNED AND MISCELLANEOUS SATELLITES
FROM WA5QGD FORT WORTH,TX August 16, 2007
Send Subscribe/unsubscribe to KEPS at 
http://www.amsat.org/mailman/listinfo/keps
BID: ORB07228.M
TO ALL RADIO AMATEURS BT

Satellite: HUBBLE
Catalog number: 20580
Epoch time:      07227.94648248
Element set:    0941
Inclination:      028.4677 deg
RA of node:       160.4348 deg
Eccentricity:    0.0003370
Arg of perigee:   012.6051 deg
Mean anomaly:     347.4621 deg
Mean motion:   15.00268722 rev/day
Decay rate:       2.76e-06 rev/day^2
Epoch rev:           74894
Checksum:              296

Satellite: UARS
Catalog number: 21701
Epoch time:      07227.93121827
Element set:    0146
Inclination:      056.9753 deg
RA of node:       054.5707 deg
Eccentricity:    0.0086269
Arg of perigee:   309.9458 deg
Mean anomaly:     049.4041 deg
Mean motion:   15.48652396 rev/day
Decay rate:      1.957e-05 rev/day^2
Epoch rev:           87500
Checksum:              326

Satellite: PO-34
Catalog number: 25520
Epoch time:      07227.91020000
Element set:    0808
Inclination:      028.4595 deg
RA of node:       069.0223 deg
Eccentricity:    0.0005840
Arg of perigee:   186.1533 deg
Mean anomaly:     173.8990 deg
Mean motion:   15.17034372 rev/day
Decay rate:       3.67e-06 rev/day^2
Epoch rev:           48660
Checksum:              286

Satellite: ISS
Catalog number: 25544
Epoch time:      07229.01434028
Element set:     798
Inclination:      051.6358 deg
RA of node:       149.8408 deg
Eccentricity:    0.0007920
Arg of perigee:   254.1848 deg
Mean anomaly:     283.2351 deg
Mean motion:   15.76112068 rev/day
Decay rate:      8.535e-05 rev/day^2
Epoch rev:           50037
Checksum:              303

Satellite: OO-38
Catalog number: 26063
Epoch time:      07227.61081970
Element set:    0986
Inclination:      100.2290 deg
RA of node:       241.2126 deg
Eccentricity:    0.0037055
Arg of perigee:   353.2972 deg
Mean anomaly:     006.7704 deg
Mean motion:   14.35812804 rev/day
Decay rate:       -8.0e-08 rev/day^2
Epoch rev:           39558
Checksum:              295

Satellite: UWE-1
Catalog number: 28892
Epoch time:      07227.71846543
Element set:    0822
Inclination:      098.1230 deg
RA of node:       123.1618 deg
Eccentricity:    0.0016416
Arg of perigee:   288.5834 deg
Mean anomaly:     071.3585 deg
Mean motion:   14.59531320 rev/day
Decay rate:       1.54e-06 rev/day^2
Epoch rev:           09589
Checksum:              312

